• In Hungary
  • List of Countries
  • For 7 days
  • Water Temperature
  • Satellite Maps
  • Weather Map
  • News
  • Weather Widgets
  • user-avatar
    Login

    Hourly Weather Suffolk

    Today, 24 January, Wednesday

    Time Temperature Precipitation Wind Pressure Humidity
    00:00 +7°C° 0 mm 4 mps 760 mmHg 65%
    01:00 +7°C° 0 mm 3 mps 761 mmHg 66%
    02:00 +7°C° 0 mm 3 mps 761 mmHg 66%
    03:00 +5°C° 0 mm 3 mps 762 mmHg 67%
    04:00 +5°C° 0 mm 3 mps 762 mmHg 67%
    05:00 +4°C° 0 mm 3 mps 763 mmHg 68%
    06:00 +4°C° 0 mm 3 mps 763 mmHg 68%
    07:00 +3°C° 0 mm 3 mps 764 mmHg 69%
    08:00 +4°C° 0 mm 3 mps 764 mmHg 64%
    09:00 +6°C° 0 mm 4 mps 765 mmHg 59%
    10:00 +7°C° 0 mm 4 mps 765 mmHg 55%
    11:00 +8°C° 0 mm 3 mps 765 mmHg 52%
    12:00 +9°C° 0 mm 3 mps 764 mmHg 49%
    13:00 +10°C° 0 mm 3 mps 764 mmHg 46%
    14:00 +10°C° 0 mm 3 mps 764 mmHg 48%
    15:00 +10°C° 0 mm 3 mps 764 mmHg 49%
    16:00 +10°C° 0 mm 3 mps 764 mmHg 50%
    17:00 +8°C° 0 mm 3 mps 764 mmHg 55%
    18:00 +7°C° 0 mm 3 mps 765 mmHg 60%
    19:00 +6°C° 0 mm 2 mps 765 mmHg 65%
    20:00 +4°C° 0 mm 3 mps 766 mmHg 64%
    21:00 +4°C° 0 mm 3 mps 766 mmHg 63%
    22:00 +4°C° 0 mm 4 mps 767 mmHg 62%
    23:00 +3°C° 0 mm 3 mps 767 mmHg 64%

    Tomorrow, 25 January, Thursday

    Time Temperature Precipitation Wind Pressure Humidity
    00:00 +3°C° 0 mm 3 mps 768 mmHg 66%
    01:00 +2°C° 0 mm 3 mps 768 mmHg 69%
    02:00 +2°C° 0 mm 3 mps 768 mmHg 70%
    03:00 +1°C° 0 mm 3 mps 768 mmHg 71%
    04:00 0°C° 0 mm 3 mps 769 mmHg 72%
    05:00 0°C° 0 mm 3 mps 769 mmHg 72%
    06:00 -1°C° 0 mm 3 mps 770 mmHg 72%
    07:00 -1°C° 0 mm 3 mps 771 mmHg 72%
    08:00 0°C° 0 mm 3 mps 772 mmHg 66%
    09:00 +2°C° 0 mm 3 mps 772 mmHg 59%
    10:00 +3°C° 0 mm 4 mps 773 mmHg 53%
    11:00 +4°C° 0 mm 4 mps 773 mmHg 50%
    12:00 +5°C° 0 mm 3 mps 773 mmHg 48%
    13:00 +7°C° 0 mm 3 mps 773 mmHg 45%
    14:00 +7°C° 0 mm 3 mps 773 mmHg 46%
    15:00 +7°C° 0 mm 2 mps 773 mmHg 46%
    16:00 +7°C° 0 mm 2 mps 773 mmHg 46%
    17:00 +6°C° 0 mm 1 mps 773 mmHg 51%
    18:00 +5°C° 0 mm 1 mps 774 mmHg 55%
    19:00 +4°C° 0 mm 1 mps 775 mmHg 60%
    20:00 +3°C° 0 mm 1 mps 775 mmHg 62%
    21:00 +3°C° 0 mm 1 mps 775 mmHg 63%
    22:00 +2°C° 0 mm 2 mps 775 mmHg 65%
    23:00 +2°C° 0 mm 2 mps 775 mmHg 67%

    Day after tomorrow, 26 January, Friday

    Time Temperature Precipitation Wind Pressure Humidity
    00:00 +1°C° 0 mm 2 mps 775 mmHg 69%
    01:00 +1°C° 0 mm 2 mps 775 mmHg 71%
    02:00 +1°C° 0 mm 2 mps 775 mmHg 72%
    03:00 +1°C° 0 mm 2 mps 775 mmHg 72%
    04:00 +1°C° 0 mm 2 mps 775 mmHg 73%
    05:00 +1°C° 0 mm 2 mps 776 mmHg 72%
    06:00 +1°C° 0 mm 2 mps 776 mmHg 72%
    07:00 +1°C° 0 mm 2 mps 776 mmHg 71%
    08:00 +2°C° 0 mm 2 mps 777 mmHg 65%
    09:00 +4°C° 0 mm 2 mps 777 mmHg 60%
    10:00 +6°C° 0 mm 2 mps 777 mmHg 54%
    11:00 +8°C° 0 mm 3 mps 777 mmHg 50%
    12:00 +9°C° 0 mm 3 mps 776 mmHg 47%
    13:00 +11°C° 0 mm 3 mps 776 mmHg 44%
    14:00 +11°C° 0 mm 3 mps 776 mmHg 45%
    15:00 +11°C° 0 mm 3 mps 775 mmHg 46%
    16:00 +11°C° 0 mm 3 mps 775 mmHg 47%
    17:00 +9°C° 0 mm 3 mps 775 mmHg 53%
    18:00 +8°C° 0 mm 3 mps 775 mmHg 58%
    19:00 +5°C° 0 mm 3 mps 776 mmHg 64%
    20:00 +5°C° 0 mm 3 mps 776 mmHg 65%
    21:00 +4°C° 0 mm 3 mps 776 mmHg 66%
    22:00 +4°C° 0 mm 3 mps 776 mmHg 68%
    23:00 +3°C° 0 mm 3 mps 776 mmHg 70%

    27 January, Saturday

    Time Temperature Precipitation Wind Pressure Humidity
    00:00 +3°C° 0 mm 3 mps 775 mmHg 72%
    01:00 +3°C° 0 mm 3 mps 775 mmHg 75%
    02:00 +3°C° 0 mm 3 mps 775 mmHg 77%
    03:00 +3°C° 0 mm 3 mps 775 mmHg 80%
    04:00 +3°C° 0 mm 3 mps 775 mmHg 83%
    05:00 +4°C° 0 mm 2 mps 775 mmHg 85%
    06:00 +4°C° 0 mm 2 mps 775 mmHg 87%
    07:00 +4°C° 0 mm 2 mps 775 mmHg 90%
    08:00 +5°C° 0 mm 3 mps 775 mmHg 84%
    09:00 +8°C° 0 mm 3 mps 775 mmHg 78%
    10:00 +10°C° 0 mm 3 mps 775 mmHg 72%
    11:00 +12°C° 0 mm 4 mps 774 mmHg 67%
    12:00 +13°C° 0 mm 5 mps 774 mmHg 63%
    13:00 +15°C° 0 mm 5 mps 773 mmHg 59%
    14:00 +14°C° 0 mm 5 mps 772 mmHg 63%
    15:00 +14°C° 0 mm 4 mps 772 mmHg 67%
    16:00 +13°C° 0 mm 4 mps 771 mmHg 71%
    17:00 +12°C° 0 mm 3 mps 771 mmHg 76%
    18:00 +11°C° 0 mm 3 mps 771 mmHg 81%
    19:00 +10°C° 0 mm 3 mps 771 mmHg 86%
    20:00 +10°C° 0 mm 3 mps 771 mmHg 87%
    21:00 +10°C° 0 mm 3 mps 771 mmHg 88%
    22:00 +10°C° 0 mm 3 mps 771 mmHg 89%
    23:00 +10°C° 0 mm 3 mps 770 mmHg 90%

    28 January, Sunday

    Time Temperature Precipitation Wind Pressure Humidity
    00:00 +10°C° 0 mm 4 mps 770 mmHg 90%
    01:00 +11°C° 0 mm 4 mps 769 mmHg 91%
    02:00 +11°C° 0 mm 4 mps 768 mmHg 91%
    03:00 +11°C° 0 mm 4 mps 768 mmHg 91%
    04:00 +11°C° 0 mm 4 mps 767 mmHg 91%
    05:00 +11°C° 0.1 mm 4 mps 767 mmHg 92%
    06:00 +11°C° 0.1 mm 3 mps 767 mmHg 92%
    07:00 +11°C° 0.1 mm 3 mps 767 mmHg 93%
    08:00 +12°C° 0.2 mm 4 mps 767 mmHg 91%
    09:00 +12°C° 0.2 mm 4 mps 767 mmHg 88%
    10:00 +13°C° 0.2 mm 4 mps 767 mmHg 86%
    11:00 +14°C° 0.1 mm 4 mps 766 mmHg 83%
    12:00 +14°C° 0.1 mm 5 mps 766 mmHg 80%
    13:00 +15°C° 0.1 mm 5 mps 765 mmHg 78%
    14:00 +15°C° 0.1 mm 4 mps 765 mmHg 79%
    15:00 +14°C° 0.1 mm 4 mps 764 mmHg 79%
    16:00 +14°C° 0.1 mm 3 mps 764 mmHg 80%
    17:00 +13°C° 0.2 mm 3 mps 764 mmHg 84%
    18:00 +13°C° 0.2 mm 2 mps 765 mmHg 88%
    19:00 +13°C° 0.2 mm 2 mps 765 mmHg 92%
    20:00 +12°C° 0 mm 2 mps 765 mmHg 87%
    21:00 +11°C° 0 mm 3 mps 765 mmHg 83%
    22:00 +10°C° 0 mm 3 mps 765 mmHg 79%
    23:00 +9°C° 0 mm 3 mps 765 mmHg 77%

    29 January, Monday

    Time Temperature Precipitation Wind Pressure Humidity
    00:00 +8°C° 0 mm 3 mps 765 mmHg 74%
    01:00 +5°C° 0 mm 4 mps 765 mmHg 72%
    02:00 +5°C° 0 mm 3 mps 765 mmHg 73%
    03:00 +4°C° 0 mm 3 mps 765 mmHg 74%
    04:00 +3°C° 0 mm 3 mps 765 mmHg 75%
    05:00 +3°C° 0 mm 3 mps 765 mmHg 76%
    06:00 +2°C° 0 mm 3 mps 765 mmHg 77%
    07:00 +2°C° 0 mm 3 mps 765 mmHg 78%
    08:00 +3°C° 0 mm 3 mps 766 mmHg 71%
    09:00 +4°C° 0 mm 4 mps 766 mmHg 65%
    10:00 +5°C° 0 mm 4 mps 766 mmHg 58%
    11:00 +6°C° 0 mm 4 mps 765 mmHg 54%
    12:00 +6°C° 0 mm 5 mps 765 mmHg 49%
    13:00 +7°C° 0 mm 5 mps 765 mmHg 45%
    14:00 +6°C° 0 mm 5 mps 765 mmHg 44%
    15:00 +5°C° 0 mm 6 mps 765 mmHg 43%
    16:00 +5°C° 0 mm 6 mps 765 mmHg 41%
    17:00 +3°C° 0 mm 6 mps 766 mmHg 44%
    18:00 +2°C° 0 mm 5 mps 767 mmHg 47%
    19:00 +1°C° 0 mm 4 mps 768 mmHg 50%
    20:00 0°C° 0 mm 5 mps 768 mmHg 51%
    21:00 0°C° 0 mm 5 mps 769 mmHg 52%
    22:00 -1°C° 0 mm 5 mps 769 mmHg 53%
    23:00 -2°C° 0 mm 5 mps 769 mmHg 54%
    Show more